Regional Weather Roundup
Issued by NWS Jackson, KY

Home | Current Version | Previous Version | Graphics & Text | Print | Product List | Glossary On
Versions: 1 2 3 4 5 6 7 8 9 10 11 12 13 14 15 16 17 18 19 20 21 22 23 24 25 26 27 28 29 30 31 32 33 34 35 36 37 38 39 40 41 42 43 44 45 46 47 48 49 50
000
ASUS43 KJKL 260110
RWRJKL

EAST KENTUCKY HOURLY WEATHER ROUNDUP
NATIONAL WEATHER SERVICE JACKSON KY
800 PM EST SAT FEB 25 2017

NOTE: "FAIR" INDICATES FEW OR NO CLOUDS BELOW 12,000 FEET WITH
NO SIGNIFICANT WEATHER AND/OR OBSTRUCTIONS TO VISIBILITY.

* THESE REPORTS ARE NOT UNDER NWS QUALITY CONTROL AND MAY NOT
  REPORT WEATHER SUCH AS PRECIPITATION AND FOG.

KYZ079-080-083-085-087-088-110-112-115-119-120-260200
...EASTERN KENTUCKY...

CITY           SKY/WX    TMP DP  RH WIND       PRES   REMARKS
JACKSON        CLEAR     33  19  56 W10       30.01R WCI  25
LONDON         CLEAR     34  18  52 W10       30.05R WCI  26
SOMERSET*      CLEAR     32  19  59 NW3       30.08R
MONTICELLO*    CLEAR     32  22  66 NW7       30.09R WCI  26
WILLIAMSBURG*  CLEAR     32  21  64 NW7       30.05R WCI  26
MIDDLESBORO*   CLEAR     38  22  53 NW8       30.03R WCI  32
HARLAN APT*    CLEAR     36  19  51 SW8       30.01R WCI  29
PIKE CO APT*     N/A     33  21  60 W9        29.99R WCI  26
BIG SANDY APT* CLEAR     35  20  56 NW5       30.00R WCI  31
MOREHEAD APT*  CLOUDY    32  19  59 W5        30.05R WCI  27
ASHLAND*       CLOUDY    36  19  51 NW12G20   30.02R WCI  27
$$

KYZ035-036-041-042-044-050-067-078-099-260200
...CENTRAL KENTUCKY...

CITY           SKY/WX    TMP DP  RH WIND       PRES   REMARKS
FLEMING/MASON* CLOUDY    31  19  62 W8        30.05R WCI  23
DANVILLE*      CLOUDY    32  21  64 W5        30.07R WCI  27
LEXINGTON      CLOUDY    34  19  54 W7        30.04R WCI  28
FRANKFORT      CLOUDY    35  18  49 W3        30.04R
LOUISVILLE     PTCLDY    36  15  42 W12       30.07R WCI  28
LEBANON*         N/A     34  21  60 SW7       30.07R WCI  28
GLASGOW*       CLEAR     34  20  56 CALM      30.09R
BOWLING GREEN  CLEAR     38  19  46 NW3       30.10R
$$

KYZ091>093-OHZ055-061-077-WVZ005-015-034-035-042-260200
...SOUTHERN OHIO/WEST VIRGINIA...

CITY           SKY/WX    TMP DP  RH WIND       PRES   REMARKS
COVINGTON      MOCLDY    32  17  54 W18       30.02R WCI  20
COLUMBUS       FLURRIES  30  18  60 W18       29.99R WCI  18
DAYTON         CLOUDY    28  20  71 W12       29.99R WCI  18
WILMINGTON     CLOUDY    30  17  58 W16G23    29.99R WCI  19
HUNTINGTON     CLOUDY    35  20  54 W12G20    30.01R WCI  27
CHARLESTON     MOCLDY    36  20  52 W12G24    29.97R WCI  28
PINEVILLE*       N/A     37  17  45 MISG      29.98R
BECKLEY        CLEAR     33  19  56 NW13G26   29.88R WCI  24
BLUEFIELD      CLEAR     33  18  53 NW10G23   29.86R WCI  25
LOGAN CO APT*    N/A     34  19  55 NW8       29.95R WCI  27
$$

VAZ002-007-008-TNZ017-027-036-066-071-260200
...SOUTHWEST VIRGINIA/EAST TENNESSEE...

CITY           SKY/WX    TMP DP  RH WIND       PRES   REMARKS
WISE*          CLEAR     34  18  51 W9        29.94R WCI  26
JONESVILLE*      N/A     37  21  52 W9        30.02R WCI  31
ABINGDON*      CLEAR     40  19  43 N8        29.92R WCI  35
BRISTOL        CLEAR     41  18  39 W13       29.96R
MORRISTOWN*    PTCLDY    41  19  42 NW10      29.98R
SEVIERVILLE*   CLEAR     43  18  36 W6        30.00R
KNOXVILLE      CLEAR     43  19  38 W6        30.01R
LAFOLLETTE*    CLEAR     39  18  41 CALM      30.06R
OAK RIDGE      CLEAR     43  16  33 W6        30.04R
CROSSVILLE     CLEAR     34  16  47 NW5       30.03R WCI  30
NASHVILLE      CLEAR     43  16  33 NW10      30.10R
$$

...KEY TO REMARKS...
VSB - VISIBILITY IN MILES
WCI - WIND CHILL INDEX
HX  - HEAT INDEX

$$



USA.gov is the U.S. government's official web portal to all federal, state and local government web resources and services.